Weather History for KLGD - December, 2012

Change the Weather History Date:

Monday, December 31, 2012

  Actual Average (KBKE) Record (KBKE)
Temperature  
Mean Temperature 20 °F 24 °F  
Max Temperature 28 °F 33 °F 53 °F (1996)
Min Temperature 12 °F 15 °F -25 °F (1978)
Degree Days  
Heating Degree Days 45 41  
Month to date heating degree days 1246  
Since 1 July heating degree days 3285  
Cooling Degree Days 0 0  
Month to date cooling degree days 0  
Year to date cooling degree days 169  
Moisture  
Dew Point 12 °F    
Average Humidity 64    
Maximum Humidity 74    
Minimum Humidity 51    
Precipitation  
Precipitation 0.00 in 0.03 in 0.33 in (1996)
Month to date precipitation 0.98  
Year to date precipitation 10.13  
Sea Level Pressure  
Sea Level Pressure 30.26 in    
Wind  
Wind Speed 3 mph (SSW)    
Max Wind Speed 12 mph    
Max Gust Speed -    
Visibility 10 miles    
Events      
T = Trace of Precipitation, MM = Missing Value Source: NWS Daily Summary

Daily Weather History Graph

Daily Weather History Graph

Search for Another Location

Airport or City:

Trip Planner

Search our weather history database for the weather conditions in past years. The results will help you decide how hot, cold, wet, or windy it might be!

Date:

Astronomy

Dec. 31, 2012 Rise Set
Actual Time 7:31 AM PST 4:19 PM PST
Civil Twilight 6:57 AM PST 4:53 PM PST
Nautical Twilight 6:20 AM PST 5:30 PM PST
Astronomical Twilight 5:44 AM PST 6:06 PM PST
Moon 8:05 PM PST (12/31) 9:05 AM PST (12/31)
Length of Visible Light 9h 55m
Length of Day
8h 48m
Waning Gibbous, 89% of the Moon is Illuminated
Dec 31
Waning Gibbous
Jan 4
Last Quarter
Jan 11
New
Jan 18
First Quarter
Jan 26
Full

Hourly Weather History & Observations

Time (PST) Temp. Windchill Dew Point Humidity Pressure Visibility Wind Dir Wind Speed Gust Speed Precip Events Conditions
12:15 AM 19.4 °F 12.8 °F 10.4 °F 68% 30.23 in 10.0 mi North 4.6 mph - N/A   Overcast
12:35 AM 17.6 °F 10.7 °F 10.4 °F 73% 30.23 in 10.0 mi NNW 4.6 mph - N/A   Overcast
12:55 AM 17.6 °F - 10.4 °F 73% 30.23 in 10.0 mi Calm Calm - N/A   Mostly Cloudy
1:15 AM 15.8 °F - 8.6 °F 73% 30.24 in 10.0 mi Calm Calm - N/A   Scattered Clouds
1:35 AM 15.8 °F - 6.8 °F 68% 30.25 in 10.0 mi Calm Calm - N/A   Mostly Cloudy
1:55 AM 15.8 °F 8.6 °F 8.6 °F 73% 30.25 in 10.0 mi South 4.6 mph - N/A   Mostly Cloudy
2:15 AM 15.8 °F - 8.6 °F 73% 30.24 in 10.0 mi Calm Calm - N/A   Mostly Cloudy
2:35 AM 12.2 °F 2.9 °F 5.0 °F 73% 30.24 in 10.0 mi South 5.8 mph - N/A   Partly Cloudy
2:55 AM 15.8 °F - 8.6 °F 73% 30.24 in 10.0 mi Calm Calm - N/A   Clear
3:15 AM 15.8 °F - 8.6 °F 73% 30.24 in 10.0 mi Calm Calm - N/A   Scattered Clouds
3:35 AM 15.8 °F - 8.6 °F 73% 30.25 in 10.0 mi Calm Calm - N/A   Overcast
4:15 AM 17.6 °F - 10.4 °F 73% 30.24 in 10.0 mi Calm Calm - N/A   Overcast
4:35 AM 17.6 °F - 8.6 °F 68% 30.24 in 10.0 mi Calm Calm - N/A   Overcast
4:55 AM 17.6 °F - 10.4 °F 73% 30.24 in 10.0 mi Calm Calm - N/A   Overcast
5:15 AM 17.6 °F - 10.4 °F 73% 30.24 in 10.0 mi Calm Calm - N/A   Overcast
5:35 AM 17.6 °F - 10.4 °F 73% 30.25 in 10.0 mi Calm Calm - N/A   Overcast
5:55 AM 17.6 °F - 10.4 °F 73% 30.26 in 10.0 mi Calm Calm - N/A   Overcast
6:15 AM 19.4 °F - 10.4 °F 68% 30.26 in 10.0 mi Calm Calm - N/A   Overcast
6:35 AM 19.4 °F - 10.4 °F 68% 30.25 in 10.0 mi Calm Calm - N/A   Overcast
6:55 AM 19.4 °F - 10.4 °F 68% 30.26 in 10.0 mi Calm Calm - N/A   Overcast
7:15 AM 19.4 °F - 10.4 °F 68% 30.26 in 10.0 mi Calm Calm - N/A   Overcast
7:35 AM 19.4 °F - 10.4 °F 68% 30.26 in 10.0 mi Calm Calm - N/A   Overcast
7:55 AM 17.6 °F 10.7 °F 10.4 °F 73% 30.25 in 10.0 mi NNW 4.6 mph - N/A   Mostly Cloudy
8:15 AM 17.6 °F - 10.4 °F 73% 30.25 in 10.0 mi Calm Calm - N/A   Partly Cloudy
8:35 AM 17.6 °F - 10.4 °F 73% 30.25 in 10.0 mi Calm Calm - N/A   Clear
8:55 AM 19.4 °F - 10.4 °F 68% 30.25 in 10.0 mi Calm Calm - N/A   Clear
9:15 AM 19.4 °F - 12.2 °F 74% 30.25 in 10.0 mi Calm Calm - N/A   Clear
9:35 AM 21.2 °F - 12.2 °F 68% 30.25 in 10.0 mi Calm Calm - N/A   Clear
9:55 AM 21.2 °F - 14.0 °F 74% 30.25 in 10.0 mi Calm Calm - N/A   Clear
10:15 AM 24.8 °F - 14.0 °F 64% 30.25 in 10.0 mi Calm Calm - N/A   Clear
10:35 AM 26.6 °F - 15.8 °F 64% 30.25 in 10.0 mi Calm Calm - N/A   Clear
10:55 AM 26.6 °F - 15.8 °F 64% 30.25 in 10.0 mi Calm Calm - N/A   Clear
11:15 AM 28.4 °F - 15.8 °F 59% 30.25 in 10.0 mi Calm Calm - N/A   Clear
11:35 AM 28.4 °F - 14.0 °F 55% 30.25 in 10.0 mi Calm Calm - N/A   Clear
11:55 AM 28.4 °F 19.1 °F 12.2 °F 51% 30.25 in 10.0 mi South 10.4 mph - N/A   Clear
12:15 PM 28.4 °F 19.1 °F 15.8 °F 59% 30.24 in 10.0 mi SSW 10.4 mph - N/A   Clear
12:35 PM 28.4 °F 19.7 °F 14.0 °F 55% 30.23 in 10.0 mi South 9.2 mph - N/A   Clear
12:55 PM 28.4 °F 19.1 °F 12.2 °F 51% 30.23 in 10.0 mi South 10.4 mph - N/A   Clear
1:15 PM 28.4 °F 20.4 °F 14.0 °F 55% 30.23 in 10.0 mi South 8.1 mph - N/A   Clear
1:35 PM 28.4 °F 19.7 °F 12.2 °F 51% 30.23 in 10.0 mi South 9.2 mph - N/A   Clear
1:55 PM 28.4 °F 19.7 °F 14.0 °F 55% 30.23 in 10.0 mi SSW 9.2 mph - N/A   Scattered Clouds
2:35 PM 28.4 °F 18.5 °F 14.0 °F 55% 30.24 in 10.0 mi SSW 11.5 mph - N/A   Overcast
2:55 PM 28.4 °F 19.7 °F 12.2 °F 51% 30.24 in 10.0 mi SSW 9.2 mph - N/A   Overcast
3:15 PM 26.6 °F 17.5 °F 12.2 °F 55% 30.24 in 10.0 mi South 9.2 mph - N/A   Mostly Cloudy
3:35 PM 26.6 °F 18.2 °F 14.0 °F 59% 30.24 in 10.0 mi SSW 8.1 mph - N/A   Clear
3:55 PM 26.6 °F 17.5 °F 12.2 °F 55% 30.24 in 10.0 mi SW 9.2 mph - N/A   Mostly Cloudy
4:15 PM 26.6 °F 20.0 °F 12.2 °F 55% 30.25 in 10.0 mi SSW 5.8 mph - N/A   Overcast
4:35 PM 26.6 °F 20.0 °F 12.2 °F 55% 30.25 in 10.0 mi SW 5.8 mph - N/A   Overcast
4:55 PM 26.6 °F 21.2 °F 14.0 °F 59% 30.25 in 10.0 mi SSW 4.6 mph - N/A   Overcast
5:15 PM 26.6 °F 21.2 °F 14.0 °F 59% 30.26 in 10.0 mi South 4.6 mph - N/A   Overcast
5:35 PM 26.6 °F - 14.0 °F 59% 30.26 in 10.0 mi Calm Calm - N/A   Overcast
5:55 PM 26.6 °F - 14.0 °F 59% 30.27 in 10.0 mi Calm Calm - N/A   Overcast
6:15 PM 26.6 °F - 14.0 °F 59% 30.28 in 10.0 mi Calm Calm - N/A   Overcast
6:35 PM 26.6 °F - 14.0 °F 59% 30.28 in 10.0 mi Calm Calm - N/A   Overcast
6:55 PM 26.6 °F 21.2 °F 14.0 °F 59% 30.29 in 10.0 mi SSW 4.6 mph - N/A   Overcast
7:15 PM 26.6 °F 22.6 °F 14.0 °F 59% 30.28 in 10.0 mi South 3.5 mph - N/A   Overcast
7:35 PM 26.6 °F - 15.8 °F 64% 30.29 in 10.0 mi Calm Calm - N/A   Overcast
7:55 PM 24.8 °F 19.1 °F 14.0 °F 64% 30.28 in 10.0 mi SSW 4.6 mph - N/A   Overcast
8:15 PM 24.8 °F - 12.2 °F 59% 30.29 in 10.0 mi Calm Calm - N/A   Overcast
8:35 PM 23.0 °F 14.7 °F 12.2 °F 63% 30.30 in 10.0 mi SSW 6.9 mph - N/A   Overcast
8:55 PM 21.2 °F 14.9 °F 10.4 °F 63% 30.30 in 10.0 mi South 4.6 mph - N/A   Overcast
9:15 PM 23.0 °F 15.8 °F 12.2 °F 63% 30.31 in 10.0 mi South 5.8 mph - N/A   Mostly Cloudy
9:35 PM 21.2 °F 12.6 °F 10.4 °F 63% 30.31 in 10.0 mi South 6.9 mph - N/A   Partly Cloudy
9:55 PM 21.2 °F 10.9 °F 10.4 °F 63% 30.32 in 10.0 mi SSW 9.2 mph - N/A   Clear
10:15 PM 21.2 °F 10.1 °F 12.2 °F 68% 30.32 in 10.0 mi SSW 10.4 mph - N/A   Clear
10:35 PM 21.2 °F 10.1 °F 10.4 °F 63% 30.33 in 10.0 mi SSW 10.4 mph - N/A   Clear
10:55 PM 21.2 °F 12.6 °F 10.4 °F 63% 30.33 in 10.0 mi South 6.9 mph - N/A   Clear
11:15 PM 21.2 °F 11.7 °F 10.4 °F 63% 30.34 in 10.0 mi SW 8.1 mph - N/A   Clear
11:35 PM 21.2 °F 11.7 °F 10.4 °F 63% 30.35 in 10.0 mi SW 8.1 mph - N/A   Clear
11:55 PM 21.2 °F 12.6 °F 10.4 °F 63% 30.35 in 10.0 mi WSW 6.9 mph - N/A   Clear